| time (UTC) | temp F | wind direction | speed knots | gust knots | rain 1hr in | rain 24hr in | rain mn in | humidity % | barometer mb |
| 20260507221517 | 89 | 131 | 2.6 | 7.0 | 0.00 | 0.00 | 0.00 | 67 | 1011.8 |
| 20260507220013 | 90 | 92 | 1.7 | 6.1 | 0.00 | 0.00 | 0.00 | 65 | 1011.7 |
| 20260507214513 | 91 | 113 | 1.7 | 5.2 | 0.00 | 0.00 | 0.00 | 62 | 1011.6 |
| 20260507213016 | 91 | 58 | 2.6 | 7.8 | 0.00 | 0.00 | 0.00 | 68 | 1011.5 |
| 20260507211511 | 91 | 77 | 2.6 | 5.2 | 0.00 | 0.00 | 0.00 | 65 | 1011.5 |
| 20260507210009 | 93 | 107 | 1.7 | 6.1 | 0.00 | 0.00 | 0.00 | 48 | 1011.4 |
| 20260507204507 | 93 | 101 | 2.6 | 7.8 | 0.00 | 0.00 | 0.00 | 52 | 1011.4 |
| 20260507203008 | 94 | 121 | 1.7 | 7.0 | 0.00 | 0.00 | 0.00 | 52 | 1011.5 |
| 20260507201513 | 93 | 113 | 2.6 | 7.8 | 0.00 | 0.00 | 0.00 | 52 | 1011.7 |
| 20260507200009 | 93 | 99 | 5.2 | 7.8 | 0.00 | 0.00 | 0.00 | 52 | 1011.8 |
| 20260507194503 | 93 | 82 | 2.6 | 6.1 | 0.00 | 0.00 | 0.00 | 52 | 1011.8 |
| 20260507193059 | 92 | 116 | 3.5 | 8.7 | 0.00 | 0.00 | 0.00 | 52 | 1012.1 |
| 20260507191557 | 92 | 90 | 2.6 | 8.7 | 0.00 | 0.00 | 0.00 | 56 | 1012.3 |
| 20260507190057 | 92 | 215 | 3.5 | 8.7 | 0.00 | 0.00 | 0.00 | 57 | 1012.5 |
| 20260507184552 | 92 | 87 | 3.5 | 9.6 | 0.00 | 0.00 | 0.00 | 58 | 1012.7 |
| 20260507183051 | 92 | 82 | 5.2 | 10.4 | 0.00 | 0.00 | 0.00 | 59 | 1012.8 |
| 20260507181554 | 91 | 98 | 5.2 | 10.4 | 0.00 | 0.00 | 0.00 | 66 | 1012.9 |
| 20260507180045 | 91 | 164 | 4.3 | 10.4 | 0.00 | 0.00 | 0.00 | 62 | 1013.4 |
| 20260507174553 | 91 | 100 | 2.6 | 11.3 | 0.00 | 0.00 | 0.00 | 65 | 1013.7 |
| 20260507173059 | 90 | 158 | 5.2 | 10.4 | 0.00 | 0.00 | 0.00 | 62 | 1014.0 |
| 20260507171546 | 90 | 103 | 4.3 | 13.0 | 0.00 | 0.00 | 0.00 | 67 | 1014.2 |
| 20260507170036 | 89 | 129 | 3.5 | 10.4 | 0.00 | 0.00 | 0.00 | 66 | 1014.5 |
| 20260507164541 | 89 | 101 | 4.3 | 13.0 | 0.00 | 0.00 | 0.00 | 68 | 1014.7 |
| 20260507163031 | 89 | 91 | 4.3 | 11.3 | 0.00 | 0.00 | 0.00 | 67 | 1014.7 |
| 20260507161531 | 88 | 115 | 6.1 | 12.2 | 0.00 | 0.00 | 0.00 | 68 | 1014.8 |
| 20260507160031 | 88 | 79 | 5.2 | 12.2 | 0.00 | 0.00 | 0.00 | 70 | 1015.1 |
| 20260507154525 | 88 | 103 | 3.5 | 10.4 | 0.00 | 0.00 | 0.00 | 70 | 1015.1 |
| 20260507153021 | 87 | 161 | 3.5 | 8.7 | 0.00 | 0.00 | 0.00 | 71 | 1015.3 |
| 20260507151518 | 87 | 101 | 5.2 | 10.4 | 0.00 | 0.00 | 0.00 | 72 | 1015.4 |
| 20260507150014 | 86 | 117 | 2.6 | 9.6 | 0.00 | 0.00 | 0.00 | 74 | 1015.6 |
| 20260507144511 | 85 | 87 | 6.1 | 16.5 | 0.00 | 0.00 | 0.00 | 74 | 1015.7 |
| 20260507143015 | 84 | 123 | 7.0 | 11.3 | 0.00 | 0.00 | 0.00 | 75 | 1015.7 |
| 20260507141502 | 83 | 82 | 4.3 | 11.3 | 0.00 | 0.00 | 0.00 | 77 | 1015.7 |
| 20260507140059 | 83 | 113 | 5.2 | 11.3 | 0.00 | 0.00 | 0.00 | 77 | 1015.8 |
| 20260507134601 | 82 | 101 | 7.0 | 11.3 | 0.00 | 0.00 | 0.00 | 78 | 1015.8 |
| 20260507133050 | 82 | 156 | 5.2 | 9.6 | 0.00 | 0.00 | 0.00 | 79 | 1015.8 |
| 20260507131547 | 81 | 146 | 6.1 | 13.9 | 0.00 | 0.00 | 0.00 | 80 | 1015.7 |
| 20260507130042 | 80 | 101 | 6.1 | 14.8 | 0.00 | 0.00 | 0.00 | 82 | 1015.8 |
| 20260507124538 | 80 | 115 | 6.1 | 11.3 | 0.00 | 0.00 | 0.00 | 83 | 1016.0 |
| 20260507123039 | 79 | 125 | 6.1 | 12.2 | 0.00 | 0.00 | 0.00 | 84 | 1016.0 |
| 20260507121530 | 78 | 117 | 7.0 | 12.2 | 0.00 | 0.00 | 0.00 | 85 | 1015.8 |
| 20260507120039 | 77 | 101 | 4.3 | 12.2 | 0.00 | 0.00 | 0.00 | 87 | 1015.7 |
| 20260507114522 | 77 | 144 | 4.3 | 10.4 | 0.00 | 0.00 | 0.00 | 88 | 1015.7 |
| 20260507113035 | 75 | 143 | 1.7 | 6.1 | 0.00 | 0.00 | 0.00 | 91 | 1015.5 |
| 20260507111516 | 74 | 150 | 0.9 | 5.2 | 0.00 | 0.00 | 0.00 | 94 | 1015.3 |
| 20260507110012 | 72 | 163 | 0.0 | 4.3 | 0.00 | 0.00 | 0.00 | 95 | 1015.2 |
| 20260507104509 | 71 | 156 | 1.7 | 5.2 | 0.00 | 0.00 | 0.00 | 96 | 1014.9 |
| 20260507103008 | 71 | 116 | 0.9 | 5.2 | 0.00 | 0.00 | 0.00 | 96 | 1014.7 |
| 20260507101507 | 70 | 125 | 0.0 | 0.0 | 0.00 | 0.00 | 0.00 | 95 | 1014.7 |
| 20260507100003 | 70 | 125 | 0.0 | 0.0 | 0.00 | 0.00 | 0.00 | 95 | 1014.4 |
| 20260507094501 | 71 | 125 | 0.0 | 1.7 | 0.00 | 0.00 | 0.00 | 95 | 1014.2 |
| 20260507093100 | 71 | 125 | 0.0 | 1.7 | 0.00 | 0.00 | 0.00 | 94 | 1014.3 |
| 20260507091559 | 71 | 165 | 0.0 | 1.7 | 0.00 | 0.00 | 0.00 | 94 | 1014.2 |
| 20260507090057 | 72 | 165 | 0.9 | 1.7 | 0.00 | 0.00 | 0.00 | 93 | 1014.3 |
| 20260507084601 | 72 | 165 | 0.9 | 3.5 | 0.00 | 0.00 | 0.00 | 92 | 1014.2 |
| 20260507083051 | 73 | 165 | 1.7 | 6.1 | 0.00 | 0.00 | 0.00 | 92 | 1014.1 |
| 20260507081549 | 74 | 193 | 1.7 | 7.0 | 0.00 | 0.00 | 0.00 | 92 | 1014.1 |
| 20260507080046 | 74 | 145 | 3.5 | 8.7 | 0.00 | 0.00 | 0.00 | 92 | 1014.2 |
| 20260507074548 | 74 | 178 | 2.6 | 10.4 | 0.00 | 0.00 | 0.00 | 92 | 1014.2 |
| 20260507073054 | 74 | 154 | 2.6 | 7.8 | 0.00 | 0.00 | 0.00 | 92 | 1014.3 |
| 20260507071541 | 75 | 150 | 2.6 | 7.0 | 0.00 | 0.00 | 0.00 | 91 | 1014.3 |
| 20260507070042 | 75 | 135 | 2.6 | 7.0 | 0.00 | 0.00 | 0.00 | 91 | 1014.5 |
| 20260507064544 | 75 | 174 | 2.6 | 7.8 | 0.00 | 0.00 | 0.00 | 90 | 1014.6 |
| 20260507063045 | 75 | 130 | 4.3 | 9.6 | 0.00 | 0.00 | 0.00 | 90 | 1014.6 |
| 20260507061538 | 76 | 101 | 4.3 | 9.6 | 0.00 | 0.00 | 0.00 | 89 | 1014.7 |
| 20260507060032 | 76 | 99 | 4.3 | 9.6 | 0.00 | 0.00 | 0.00 | 88 | 1014.9 |
| 20260507054529 | 76 | 146 | 4.3 | 8.7 | 0.00 | 0.00 | 0.00 | 87 | 1015.1 |
| 20260507053033 | 76 | 138 | 2.6 | 9.6 | 0.00 | 0.00 | 0.00 | 87 | 1015.1 |
| 20260507051527 | 77 | 110 | 3.5 | 7.8 | 0.00 | 0.00 | 0.00 | 86 | 1015.3 |
| 20260507050024 | 77 | 124 | 3.5 | 8.7 | 0.00 | 0.00 | 0.00 | 85 | 1015.5 |
| 20260507044523 | 77 | 155 | 4.3 | 7.8 | 0.00 | 0.00 | 0.00 | 84 | 1015.6 |
| 20260507043018 | 77 | 163 | 2.6 | 7.8 | 0.00 | 0.00 | 0.00 | 83 | 1015.7 |
| 20260507041514 | 76 | 144 | 3.5 | 7.8 | 0.00 | 0.00 | 0.00 | 85 | 1015.8 |
| 20260507040010 | 74 | 144 | 1.7 | 2.6 | 0.00 | 0.00 | 0.00 | 87 | 1016.0 |
| 20260507034511 | 74 | 144 | 0.9 | 2.6 | 0.00 | 0.00 | 0.00 | 86 | 1016.1 |
| 20260507033009 | 75 | 144 | 0.0 | 0.0 | 0.00 | 0.00 | 0.00 | 85 | 1016.1 |
| 20260507031508 | 75 | 144 | 0.0 | 0.0 | 0.00 | 0.00 | 0.00 | 85 | 1016.1 |
| 20260507030008 | 75 | 144 | 0.0 | 0.0 | 0.00 | 0.00 | 0.00 | 86 | 1016.2 |
| 20260507024508 | 75 | 144 | 0.0 | 0.0 | 0.00 | 0.00 | 0.00 | 85 | 1016.2 |
| 20260507023006 | 75 | 144 | 0.0 | 0.0 | 0.00 | 0.00 | 0.00 | 85 | 1016.2 |
| 20260507021505 | 77 | 144 | 0.9 | 1.7 | 0.00 | 0.00 | 0.00 | 82 | 1016.1 |
| 20260507020003 | 78 | 144 | 0.0 | 0.0 | 0.00 | 0.00 | 0.00 | 80 | 1016.0 |
| 20260507014503 | 80 | 144 | 0.0 | 1.7 | 0.00 | 0.00 | 0.00 | 75 | 1015.7 |
| 20260507013006 | 80 | 144 | 1.7 | 3.5 | 0.00 | 0.00 | 0.00 | 72 | 1015.6 |
| 20260507011500 | 81 | 138 | 0.9 | 3.5 | 0.00 | 0.00 | 0.00 | 72 | 1015.5 |
| 20260507010059 | 81 | 156 | 0.0 | 1.7 | 0.00 | 0.00 | 0.00 | 72 | 1015.4 |
| 20260507004559 | 81 | 156 | 0.9 | 2.6 | 0.00 | 0.00 | 0.00 | 71 | 1015.3 |
| 20260507003059 | 82 | 156 | 0.0 | 2.6 | 0.00 | 0.00 | 0.00 | 68 | 1015.1 |
| 20260507001611 | 83 | 92 | 2.6 | 6.1 | 0.00 | 0.00 | 0.00 | 67 | 1015.0 |
| 20260507000057 | 83 | 175 | 3.5 | 6.1 | 0.00 | 0.00 | 0.00 | 68 | 1014.8 |
| 20260506234602 | 83 | 178 | 0.9 | 4.3 | 0.00 | 0.00 | 0.00 | 69 | 1014.6 |
| 20260506233056 | 84 | 147 | 1.7 | 6.1 | 0.00 | 0.00 | 0.00 | 68 | 1014.2 |
| 20260506231554 | 85 | 140 | 1.7 | 7.8 | 0.00 | 0.00 | 0.00 | 66 | 1014.0 |
| 20260506230051 | 86 | 154 | 1.7 | 6.1 | 0.00 | 0.00 | 0.00 | 65 | 1013.8 |
| 20260506224605 | 87 | 120 | 3.5 | 8.7 | 0.00 | 0.00 | 0.00 | 63 | 1013.6 |
| 20260506223054 | 88 | 70 | 5.2 | 9.6 | 0.00 | 0.00 | 0.00 | 62 | 1013.4 |